GLENN Weather Reports


time (UTC)temp
C
wind
direction
speed
KPH
gust
KPH
rain 1hr
cm
rain 24hr
cm
rain mn
cm
humidity
%
barometer
mb
20260901051512 17 119 3.2 4.8 0.00 0.00 0.00 32 1016.6
20260901050017 17 90 0.0 4.8 0.00 0.00 0.00 31 1016.7
20260901044523 18 128 3.2 6.4 0.00 0.00 0.00 30 1016.7
20260901043029 18 76 3.2 6.4 0.00 0.00 0.00 28 1016.7
20260901041531 18 109 4.8 9.7 0.00 0.00 0.00 30 1016.8
20260901040017 18 42 1.6 6.4 0.00 0.00 0.00 29 1017.0
20260901034526 19 61 1.6 3.2 0.00 0.00 0.00 28 1017.1
20260901033031 18 98 4.8 6.4 0.00 0.00 0.00 30 1017.0
20260901031532 18 107 3.2 4.8 0.00 0.00 0.00 32 1016.9
20260901030032 18 108 4.8 9.7 0.00 0.00 0.00 31 1016.9
20260901024519 18 94 4.8 6.4 0.00 0.00 0.00 32 1016.8
20260901023037 18 107 3.2 6.4 0.00 0.00 0.00 31 1016.8
20260901021534 20 117 4.8 6.4 0.00 0.00 0.00 30 1016.7
20260901020031 21 111 0.0 4.8 0.00 0.00 0.00 27 1016.7
20260901014534 22 77 0.0 3.2 0.00 0.00 0.00 26 1016.5
20260901013023 23 309 1.6 3.2 0.00 0.00 0.00 23 1016.7
20260901011504 23 319 0.0 4.8 0.00 0.00 0.00 24 1016.6
20260901010008 23 297 1.6 6.4 0.00 0.00 0.00 23 1016.5
20260901004516 24 338 3.2 6.4 0.00 0.00 0.00 22 1016.6
20260901003022 25 336 1.6 6.4 0.00 0.00 0.00 24 1016.7
20260901001504 24 352 1.6 8.0 0.00 0.00 0.00 22 1016.7
20260901000008 25 309 4.8 6.4 0.00 0.00 0.00 21 1016.9
20260831234510 25 338 4.8 11.3 0.00 0.00 0.00 22 1017.0
20260831233016 25 338 4.8 9.7 0.00 0.00 0.00 19 1017.2
20260831231530 24 317 3.2 8.0 0.00 0.00 0.00 22 1017.4
20260831230007 25 13 3.2 8.0 0.00 0.00 0.00 22 1017.5
20260831224508 25 338 3.2 11.3 0.00 0.00 0.00 18 1017.6
20260831223032 24 9 4.8 12.9 0.00 0.00 0.00 22 1017.6
20260831221518 24 12 4.8 8.0 0.00 0.00 0.00 18 1017.8
20260831220026 24 45 1.6 9.7 0.00 0.00 0.00 21 1017.9
20260831214508 24 48 4.8 12.9 0.00 0.00 0.00 18 1018.2
20260831213010 23 360 4.8 9.7 0.00 0.00 0.00 25 1018.4
20260831211529 23 68 3.2 14.5 0.00 0.00 0.00 22 1018.6
20260831210024 23 31 4.8 9.7 0.00 0.00 0.00 25 1018.7
20260831204534 22 347 6.4 16.1 0.00 0.00 0.00 22 1018.9
20260831203018 22 352 3.2 11.3 0.00 0.00 0.00 26 1019.1
20260831201518 22 333 4.8 12.9 0.00 0.00 0.00 26 1019.3
20260831200027 22 337 8.0 16.1 0.00 0.00 0.00 23 1019.3
20260831194544 22 332 4.8 9.7 0.00 0.00 0.00 23 1019.4
20260831193032 21 348 4.8 8.0 0.00 0.00 0.00 25 1019.4
20260831191513 21 333 4.8 16.1 0.00 0.00 0.00 27 1019.6
20260831190019 20 303 4.8 11.3 0.00 0.00 0.00 29 1019.8
20260831184527 19 349 3.2 12.9 0.00 0.00 0.00 37 1020.0
20260831183029 18 318 3.2 11.3 0.00 0.00 0.00 35 1020.2
20260831181534 18 313 3.2 12.9 0.00 0.00 0.00 42 1020.5
20260831180016 17 338 4.8 8.0 0.00 0.00 0.00 43 1020.6
20260831174530 17 299 1.6 8.0 0.00 0.00 0.00 43 1020.6
20260831173027 16 292 6.4 11.3 0.00 0.00 0.00 44 1020.8
20260831171532 16 314 1.6 6.4 0.00 0.00 0.00 44 1020.7
20260831170032 15 5 3.2 8.0 0.00 0.00 0.00 45 1020.9
20260831164525 15 282 3.2 6.4 0.00 0.00 0.00 47 1020.9
20260831163007 14 249 1.6 6.4 0.00 0.00 0.00 45 1020.8
20260831161520 14 258 1.6 6.4 0.00 0.00 0.00 45 1020.8
20260831160016 13 9 0.0 6.4 0.00 0.00 0.00 44 1020.7
20260831154544 13 328 1.6 6.4 0.00 0.00 0.00 49 1020.9
20260831153023 13 342 1.6 8.0 0.00 0.00 0.00 50 1020.8
20260831151505 12 331 3.2 4.8 0.00 0.00 0.00 50 1020.6
20260831150013 13 346 3.2 4.8 0.00 0.15 0.00 51 1020.6
20260831144516 13 36 0.0 0.0 0.00 0.53 0.00 44 1020.6
20260831143019 13 108 0.0 0.0 0.00 0.56 0.00 48 1020.4
20260831141530 11 120 0.0 1.6 0.00 0.56 0.00 55 1020.3
20260831140009 9 118 3.2 6.4 0.00 0.56 0.00 54 1020.3
20260831134513 8 107 3.2 4.8 0.00 0.56 0.00 54 1020.1
20260831133019 8 90 1.6 4.8 0.00 0.56 0.00 52 1020.1
20260831131534 8 98 3.2 4.8 0.00 0.56 0.00 53 1020.0
20260831130031 8 103 3.2 4.8 0.00 0.56 0.00 55 1019.9
20260831124511 8 98 4.8 9.7 0.00 0.56 0.00 55 1019.8
20260831123016 8 99 4.8 4.8 0.00 0.56 0.00 54 1019.7
20260831121524 8 86 3.2 6.4 0.00 0.56 0.00 52 1019.8
20260831120028 8 103 4.8 4.8 0.00 0.58 0.00 53 1019.8
20260831114531 8 106 4.8 6.4 0.00 0.61 0.00 53 1019.7
20260831113016 8 109 3.2 6.4 0.00 0.79 0.00 55 1019.6
20260831111521 8 94 4.8 6.4 0.00 0.94 0.00 55 1019.6
20260831110026 8 103 6.4 9.7 0.00 0.94 0.00 56 1019.7
20260831104537 8 103 4.8 9.7 0.00 0.94 0.00 57 1019.6
20260831103032 8 113 4.8 6.4 0.00 0.94 0.00 58 1019.6
20260831101516 8 109 3.2 6.4 0.00 0.94 0.00 58 1019.5
20260831100022 7 116 4.8 6.4 0.00 0.94 0.00 59 1019.6
20260831094529 7 107 3.2 4.8 0.00 0.94 0.00 60 1019.5
20260831093033 7 115 4.8 6.4 0.00 0.94 0.00 62 1019.5
20260831091529 8 117 4.8 6.4 0.00 0.94 0.00 60 1019.5
20260831090018 8 116 4.8 6.4 0.00 0.94 0.00 58 1019.5
20260831084526 8 116 4.8 6.4 0.00 0.94 0.00 58 1019.4
20260831083038 8 96 4.8 6.4 0.00 0.94 0.00 58 1019.4
20260831081536 8 119 4.8 4.8 0.00 0.94 0.00 60 1019.3
20260831080016 7 119 3.2 6.4 0.00 0.94 0.00 63 1019.3
20260831074521 7 150 6.4 9.7 0.00 0.94 0.00 62 1019.1
20260831073012 9 38 0.0 0.0 0.00 0.94 0.00 53 1019.0
20260831071510 10 335 0.0 0.0 0.00 0.94 0.00 50 1018.8
20260831070023 11 338 0.0 0.0 0.00 0.94 0.00 48 1018.7
20260831064518 11 64 0.0 0.0 0.00 0.94 0.00 48 1018.6
20260831063026 11 136 0.0 3.2 0.00 0.94 0.00 48 1018.4
20260831061509 11 109 1.6 3.2 0.00 0.94 0.00 46 1018.4
20260831060011 11 77 3.2 3.2 0.00 0.94 0.00 46 1018.2
20260831054516 11 156 1.6 3.2 0.00 0.94 0.94 48 1018.3
20260831053023 12 114 0.0 3.2 0.00 0.94 0.94 46 1018.1